Left ArrowRight Arrow

Hourly Observations for June 19, 2024

Temp ( °F °C ) Dew Point ( °F °C ) Humidity (%) Winds ( mph kmh ) Pressure ( in mb ) Visibility ( mi km ) Precip ( " mm )
12:53 am 00:53 Clear 76 24.4 71 21.7 85 85 Calm 30.15 1021 10 16 0.00 0.00
1:53 am 01:53 Clear 75 23.9 72 22.2 90 90 Calm 30.16 1022 9 14 0.00 0.00
2:53 am 02:53 Clear 75 23.9 72 22.2 90 90 Calm 30.16 1021 9 14 0.00 0.00
3:53 am 03:53 Clear 74 23.3 72 22.2 94 94 Calm 30.15 1021 8 13 0.00 0.00
4:53 am 04:53 Clear 74 23.3 72 22.2 94 94 Calm 30.17 1022 8 13 0.00 0.00
5:53 am 05:53 Clear 74 23.3 72 22.2 94 94 Calm 30.18 1022 8 13 0.00 0.00
6:53 am 06:53 Sunny 75 23.9 72 22.2 90 90 Calm 30.21 1023 8 13 0.00 0.00
7:53 am 07:53 Sunny 80 26.7 74 23.3 82 82 E 3 6 30.22 1024 9 14 0.00 0.00
8:53 am 08:53 Sunny 83 28.3 75 23.9 77 77 Calm 30.25 1024 10 16 0.00 0.00
9:53 am 09:53 Sunny 83 28.3 73 22.8 72 72 Calm 30.25 1025 10 16 0.00 0.00
10:53 am 10:53 Mostly Sunny 87 30.6 73 22.8 63 63 VRB 3 6 30.26 1025 10 16 0.00 0.00
11:53 am 11:53 Sunny 89 31.7 70 21.1 54 54 Calm 30.25 1024 10 16 0.00 0.00
12:53 pm 12:53 Sunny 91 32.8 71 21.7 52 52 VRB 3 6 30.24 1024 10 16 0.00 0.00
1:53 pm 13:53 Sunny 92 33.3 69 20.6 47 47 Calm 30.24 1024 10 16 0.00 0.00
2:53 pm 14:53 Sunny 91 32.8 71 21.7 52 52 Calm 30.23 1024 10 16 0.00 0.00
3:53 pm 15:53 Mostly Sunny 93 33.9 70 21.1 47 47 VRB 3 6 30.22 1023 10 16 0.00 0.00
4:53 pm 16:53 Mostly Cloudy 92 33.3 73 22.8 54 54 Calm 30.22 1023 10 16 0.00 0.00
5:53 pm 17:53 Sunny with Nearby Thunderstorms 90 32.2 72 22.2 56 56 VRB 3 6 30.21 1023 10 16 0.00 0.00
6:53 pm 18:53 Mostly Sunny 88 31.1 75 23.9 66 66 VRB 3 6 30.21 1023 10 16 0.00 0.00
7:53 pm 19:53 Mostly Sunny 86 30 75 23.9 70 70 Calm 30.21 1023 10 16 0.00 0.00
8:53 pm 20:53 Mostly Sunny 83 28.3 75 23.9 77 77 Calm 30.22 1023 10 16 0.00 0.00
9:53 pm 21:53 Clear 81 27.2 76 24.4 85 85 Calm 30.23 1024 10 16 0.00 0.00
10:53 pm 22:53 Clear 84 28.9 73 22.8 70 70 Calm 30.25 1024 10 16 0.00 0.00
11:53 pm 23:53 Mostly Cloudy 81 27.2 73 22.8 77 77 Calm 30.26 1025 10 16 0.00 0.00

Powered by Vaisala Xweather